YO4ISC-13 Weather Reports


Display with metric or nautical units.
time (UTC)temp
F
wind
direction
speed
MPH
gust
MPH
rain 1hr
in
rain 24hr
in
rain mn
in
humidity
%
barometer
mb
20260505124002 59 164 7.0 7.0 0.00 0.00 0.00 64 1018.0
20260505123001 59 158 7.0 8.0 0.00 0.00 0.00 63 1018.0
20260505122002 59 155 6.0 9.0 0.00 0.00 0.00 63 1018.0
20260505121001 59 159 9.0 9.0 0.00 0.00 0.00 63 1018.0
20260505120002 59 171 7.0 11.0 0.00 0.00 0.00 68 1018.0
20260505115001 60 165 5.0 8.0 0.00 0.00 0.00 66 1018.0
20260505114002 60 150 8.0 8.0 0.00 0.00 0.00 64 1018.0
20260505113002 59 168 7.0 10.0 0.00 0.00 0.00 67 1018.0
20260505112001 59 170 9.0 10.0 0.00 0.00 0.00 68 1018.0
20260505111002 60 169 7.0 9.0 0.00 0.00 0.00 66 1018.0
20260505102002 61 127 5.0 6.0 0.00 0.00 0.00 57 1018.0
20260505101001 61 158 8.0 9.0 0.00 0.00 0.00 57 1018.0
20260505100002 61 126 11.0 11.0 0.00 0.00 0.00 55 1018.0
20260505095001 62 109 12.0 13.0 0.00 0.00 0.00 51 1018.0
20260505094002 62 107 6.0 10.0 0.00 0.00 0.00 50 1018.0
20260505093001 62 105 9.0 11.0 0.00 0.00 0.00 47 1018.0
20260505092002 62 102 7.0 9.0 0.00 0.00 0.00 49 1018.0
20260505091002 62 112 9.0 10.0 0.00 0.00 0.00 47 1018.0
20260505090001 62 116 5.0 8.0 0.00 0.00 0.00 51 1018.0
20260505085002 62 102 10.0 11.0 0.00 0.00 0.00 49 1018.0
20260505084001 63 112 6.0 10.0 0.00 0.00 0.00 46 1018.0
20260505083002 64 88 5.0 7.0 0.00 0.00 0.00 40 1018.0
20260505082001 63 82 5.0 5.0 0.00 0.00 0.00 40 1018.0
20260505081001 63 87 5.0 6.0 0.00 0.00 0.00 41 1018.0
20260505080002 63 118 6.0 7.0 0.00 0.00 0.00 42 1018.0
20260505075002 63 127 5.0 8.0 0.00 0.00 0.00 42 1018.0
20260505074001 63 103 6.0 7.0 0.00 0.00 0.00 44 1018.0
20260505073002 63 77 4.0 5.0 0.00 0.00 0.00 44 1018.0
20260505072002 63 67 3.0 6.0 0.00 0.00 0.00 45 1018.0
20260505071001 62 60 6.0 8.0 0.00 0.00 0.00 43 1018.0
20260505070002 62 78 4.0 5.0 0.00 0.00 0.00 46 1018.0
20260505065002 61 69 6.0 7.0 0.00 0.00 0.00 47 1018.0
20260505064001 60 72 3.0 5.0 0.00 0.00 0.00 51 1018.0
20260505063002 60 36 7.0 9.0 0.00 0.00 0.00 51 1018.0
20260505062002 59 56 6.0 7.0 0.00 0.00 0.00 54 1018.0
20260505061001 58 59 5.0 6.0 0.00 0.00 0.00 58 1018.0
20260505060003 58 53 5.0 7.0 0.00 0.00 0.00 56 1018.0
20260505055002 57 61 7.0 9.0 0.00 0.00 0.00 59 1018.0
20260505054002 57 22 5.0 6.0 0.00 0.00 0.00 59 1018.0
20260505053001 56 42 4.0 4.0 0.00 0.00 0.00 62 1018.0
20260505052002 55 22 4.0 7.0 0.00 0.00 0.00 62 1018.0
20260505051001 53 13 4.0 6.0 0.00 0.00 0.00 63 1018.0
20260505041002 45 7 2.0 3.0 0.00 0.00 0.00 72 1017.0
20260505040002 44 5 4.0 7.0 0.00 0.00 0.00 74 1017.0
20260505035002 42 21 3.0 3.0 0.00 0.00 0.00 75 1017.0
20260505034001 41 354 2.0 4.0 0.00 0.00 0.00 77 1017.0
20260505033002 40 4 7.0 7.0 0.00 0.00 0.00 78 1017.0
20260505032001 40 0 7.0 7.0 0.00 0.00 0.00 79 1017.0
20260505031002 40 356 5.0 7.0 0.00 0.00 0.00 79 1017.0
20260505030001 40 2 5.0 6.0 0.00 0.00 0.00 79 1017.0
20260505025002 40 2 5.0 6.0 0.00 0.00 0.00 78 1017.0
20260505024001 41 6 6.0 7.0 0.00 0.00 0.00 77 1017.0
20260505023002 41 356 3.0 7.0 0.00 0.00 0.00 76 1017.0
20260505022001 41 357 6.0 7.0 0.00 0.00 0.00 75 1016.0
20260505021002 41 352 4.0 5.0 0.00 0.00 0.00 75 1017.0
20260505020001 41 0 5.0 6.0 0.00 0.00 0.00 75 1016.0
20260505015002 41 358 3.0 4.0 0.00 0.00 0.00 76 1016.0
20260505014002 41 0 4.0 5.0 0.00 0.00 0.00 76 1017.0
20260505013001 41 1 3.0 4.0 0.00 0.00 0.00 76 1016.0
20260505012002 41 0 4.0 5.0 0.00 0.00 0.00 77 1017.0
20260505011001 41 0 3.0 4.0 0.00 0.00 0.00 77 1017.0
20260505010002 40 12 2.0 3.0 0.00 0.00 0.00 78 1017.0
20260505005001 40 359 4.0 4.0 0.00 0.00 0.00 78 1017.0
20260505004002 40 6 3.0 4.0 0.00 0.00 0.00 79 1017.0
20260505003002 41 3 2.0 4.0 0.00 0.00 0.00 79 1017.0
20260505002002 40 15 2.0 2.0 0.00 0.00 0.00 80 1017.0
20260505001002 41 10 1.0 1.0 0.00 0.00 0.00 79 1017.0
20260505000001 41 38 1.0 2.0 0.00 0.00 0.00 78 1017.0
20260504235002 41 108 4.0 5.0 0.00 0.00 0.00 79 1017.0
20260504234001 42 358 1.0 2.0 0.00 0.00 0.00 76 1017.0
20260504233001 42 344 2.0 3.0 0.00 0.00 0.00 76 1017.0
20260504232002 43 0 1.0 3.0 0.00 0.00 0.00 74 1017.0
20260504231001 44 359 2.0 2.0 0.00 0.00 0.00 74 1017.0
20260504230002 44 358 1.0 2.0 0.00 0.00 0.00 73 1017.0
20260504225001 44 355 2.0 3.0 0.00 0.00 0.00 72 1017.0
20260504224002 45 0 3.0 4.0 0.00 0.00 0.00 71 1017.0
20260504223001 46 358 5.0 5.0 0.00 0.00 0.00 68 1017.0
20260504222002 46 8 3.0 4.0 0.00 0.00 0.00 67 1017.0
20260504221001 46 353 5.0 5.0 0.00 0.00 0.00 67 1017.0
20260504220002 46 356 8.0 8.0 0.00 0.00 0.00 67 1017.0
20260504215001 46 14 5.0 7.0 0.00 0.00 0.00 68 1017.0
20260504214002 46 4 4.0 5.0 0.00 0.00 0.00 68 1017.0
20260504213001 46 7 5.0 5.0 0.00 0.00 0.00 69 1017.0
20260504212002 46 12 3.0 5.0 0.00 0.00 0.00 69 1017.0
20260504211001 46 12 7.0 7.0 0.00 0.00 0.00 69 1017.0
20260504210002 46 3 6.0 6.0 0.00 0.00 0.00 68 1017.0
20260504205001 46 1 4.0 6.0 0.00 0.00 0.00 68 1017.0
20260504204002 47 0 5.0 6.0 0.00 0.00 0.00 65 1017.0
20260504203001 47 357 4.0 4.0 0.00 0.00 0.00 65 1017.0
20260504202002 47 350 4.0 6.0 0.00 0.00 0.00 66 1017.0
20260504201002 47 5 4.0 6.0 0.00 0.00 0.00 67 1017.0
20260504200001 46 2 6.0 6.0 0.00 0.00 0.00 69 1017.0
20260504195002 46 5 4.0 6.0 0.00 0.00 0.00 69 1017.0
20260504194001 46 3 4.0 6.0 0.00 0.00 0.00 69 1017.0
20260504193002 47 2 2.0 4.0 0.00 0.00 0.00 68 1017.0
20260504192001 47 2 4.0 4.0 0.00 0.00 0.00 66 1017.0
20260504191002 48 359 6.0 6.0 0.00 0.00 0.00 67 1017.0
20260504190002 48 9 2.0 4.0 0.00 0.00 0.00 66 1017.0
20260504185002 49 11 3.0 4.0 0.00 0.00 0.00 65 1017.0
20260504184001 49 7 4.0 4.0 0.00 0.00 0.00 65 1017.0
20260504183002 50 9 4.0 4.0 0.00 0.00 0.00 65 1017.0
20260504182001 50 14 4.0 5.0 0.00 0.00 0.00 63 1017.0
20260504181002 51 16 3.0 4.0 0.00 0.00 0.00 63 1017.0
20260504180001 51 21 2.0 3.0 0.00 0.00 0.00 61 1017.0
20260504175002 52 18 2.0 3.0 0.00 0.00 0.00 59 1017.0
20260504174002 53 19 3.0 4.0 0.00 0.00 0.00 57 1017.0
20260504173001 54 29 3.0 3.0 0.00 0.00 0.00 54 1016.0
20260504172002 55 34 4.0 4.0 0.00 0.00 0.00 53 1016.0
20260504171001 55 35 2.0 4.0 0.00 0.00 0.00 53 1016.0
20260504151002 59 75 6.0 7.0 0.00 0.00 0.00 48 1017.0
20260504141001 60 87 5.0 8.0 0.00 0.00 0.00 43 1016.0